Regional Weather Roundup
Issued by NWS Goodland, KS

Home | Current Version | Previous Version | Text Only | Print | Product List | Glossary Off
Versions: 1 2 3 4 5 6 7 8 9 10 11 12 13 14 15 16 17 18 19 20 21 22 23 24 25 26 27 28 29 30 31 32 33 34 35 36 37 38 39 40 41 42 43 44 45 46 47 48 49 50

000
ASUS43 KGLD 060008
RWRGLD

GOODLAND FORECAST AREA HOURLY WEATHER ROUNDUP
NATIONAL WEATHER SERVICE GOODLAND KS
500 PM MST THU MAR 05 2015

...OFFICIAL OBSERVATIONS...

CITY           SKY/WX    TMP DP  RH WIND       PRES   REMARKS
GOODLAND KS    MOCLDY    42  14  32 SW10      30.25R
HILL CITY KS   MOCLDY    47   8  20 SW7       30.27F
IMPERIAL NEB     N/A     46  12  25 W8        30.21R
MCCOOK NEB     MOCLDY    50  13  22 W12       30.22R
AKRON CO       PTCLDY    43   5  20 SW3       30.21R
BURLINGTON CO  PTCLDY    40  15  36 SW12      30.25R
LIMON CO       PTCLDY    28  20  71 SE5       30.22S
$$

...UNOFFICIAL OBSERVATIONS...

CITY           SKY/WX    TMP DP  RH WIND       PRES   REMARKS
COLBY KS       CLEAR     45  19  36 SW9       30.25S
GOVE KS          N/A     45  32  60 MISG        N/A
NORTON KS      CLEAR     46   1  15 S6        30.23S
SHARON SPRINGS   N/A     42  20  40 S6          N/A
YUMA CO          N/A     44  12  27 CALM        N/A
$$


USA.gov is the U.S. government's official web portal to all federal, state and local government web resources and services.